Regional Weather Roundup
Issued by NWS Green Bay, WI

Home | Current Version | Previous Version | Graphics & Text | Print | Product List | Glossary Off
Versions: 1 2 3 4 5 6 7 8 9 10 11 12 13 14 15 16 17 18 19 20 21 22 23 24 25 26 27 28 29 30 31 32 33 34 35 36 37 38 39 40 41 42 43 44 45 46 47 48 49 50

000
ASUS43 KGRB 261611
RWRGRB

NORTH-CENTRAL AND NORTHEAST WISCONSIN REGIONAL WEATHER ROUNDUP
NATIONAL WEATHER SERVICE GREEN BAY WI
1100 AM CDT THU MAY 26 2016

WIZ005-009-010>012-018-019-261700-
NORTH CENTRAL WISCONSIN

CITY           SKY/WX    TMP DP  RH WIND       PRES   REMARKS
IRONWOOD       CLOUDY    57  55  94 SW5       29.80R THUNDER
MANITOWISH WTR NOT AVBL
ARBOR VITAE    CLOUDY    63  61  94 W5        29.84R
EAGLE RIVER    LGT RAIN  63  61  96 W7        29.82R
LAND O LAKES   HVY RAIN  65  62  91 SW9       29.84R
RHINELANDER    LGT RAIN  63  60  90 W9        29.82S
PHILLIPS       LGT RAIN  63  62  97 S3        29.82F
ANTIGO         CLOUDY    63  60  91 CALM      29.81R
TOMAHAWK       LGT RAIN  61  60  96 W6        29.82S
MERRILL        CLOUDY    63  62  97 W5        29.80S
$$

WIZ013-073-261700-
NORTHEAST WISCONSIN

CITY           SKY/WX    TMP DP  RH WIND       PRES   REMARKS
IRON MOUNTAIN  CLOUDY    69  63  81 SE5       29.79F
MARINETTE        N/A     63  61  94 MISG        N/A  FOG
OCONTO         CLOUDY   N/A N/A N/A SE3       29.80F
$$

WIZ017-030-035>037-045-261700-
CENTRAL WISCONSIN

CITY           SKY/WX    TMP DP  RH WIND       PRES   REMARKS
MEDFORD        DRIZZLE   63  63 100 W5        29.81F
WAUSAU         CLOUDY    66  32  28 NW3       29.79R
MOSINEE        PTSUNNY   64  63  94 CALM      29.83R
MARSHFIELD     CLOUDY    68  61  78 W9        29.82R
WISC RAPIDS    PTSUNNY   70  62  76 SW8       29.84R
STEVENS POINT  CLOUDY    67  61  82 S7        29.83R
WAUPACA        CLOUDY    67  67 100 SW9       29.81S
SHAWANO        CLOUDY    67  66  95 E6        29.79F
CLINTONVILLE   PTSUNNY   70  64  83 E8        29.78F
WAUTOMA        CLOUDY    66  64  93 SW8       29.85R
$$

WIZ038-039-048-051-261700-
FOX VALLEY

CITY           SKY/WX    TMP DP  RH WIND       PRES   REMARKS
NWS GREEN BAY  MOSUNNY   72  66  81 SE6       29.79F
APPLETON       PTSUNNY   70  66  88 SE7       29.79F
OSHKOSH        CLOUDY    74  65  73 S14       29.81S
FOND DU LAC    MOSUNNY   74  66  76 S14       29.82F
$$

WIZ022-050-052-261700-
EAST CENTRAL WISCONSIN

CITY           SKY/WX    TMP DP  RH WIND       PRES   REMARKS
EPHRAIM        CLOUDY    64  62  93 SE6       29.83F
STURGEON BAY   NOT AVBL
MANITOWOC      MOSUNNY   62  60  93 SE6       29.82F
SHEBOYGAN      CLOUDY    72  66  81 S13       29.84F
$$

LMZ563-521-522-541>543-261700-
LAKESHORE

STATION/POSITION TIME  TEMP    WIND        PRES    VSBY  WAVE
                       AIR SEA DIR/SP/G                  HT/PER
                 (UTC) (F)     (DEG/KT/KT) (MB)    (MI)  (FT/S)
SHEBOYGAN LKSHOR 1600   62     180/ 15/ 16 1010.6F
KEWAUNEE LKSHORE 1500   51     150/  5/  5 1010.7F
ALGOMA MARINA    1517             CALM       N/A
NORTHPORT PIER   1500   64     160/  2/  4 1010.8S
N MID LAKE BUOY  1550   48 45  180/ 12/ 14 1010.4F         1/ 3
SISTER BAY LKSHO 1520   63     200/  8/  9   N/A
CHAMBERS ISLAND  1500   61     150/  5/  7 1010.8F
MENOMINEE LKSHOR 1500   57     180/  5/  7 1009.9S
$$



USA.gov is the U.S. government's official web portal to all federal, state and local government web resources and services.